Weather in Zuevka

Russia / Kirov Oblast     58°24′11″N   51°08′00″E
temp.,
°C
wind,
m/s
gust,
m/s
humid.,
%
clouds,
%
prec.,
mm/h
press.,
hPa
HPBL,
m
12 may, wed
wed1200:00+10ene227690 0.0 103026
03:00+9ene2277100 0.0 103017
06:00+13ene23675 0.0 1031153
09:00+19se12510 0.0 1030654
12:00+23sse11383 0.0 10291315
15:00+24sw11360 0.0 10281481
18:00+21wsw11530 0.0 102715
21:00+16ne11650 0.0 102811
13 may, thu
thu1300:00+14e11694 0.0 102811
03:00+13ese11721 0.0 102810
06:00+17ese11620 0.0 1028100
09:00+23se22453 0.0 1027646
12:00+26s34377 0.0 10262397
15:00+26s35345 0.0 10252606
18:00+22s25505 0.0 1024137
21:00+17ssw246694 0.0 102563
14 may, fri
fri1400:00+15sse2367100 0.0 102442
03:00+15sse2668100 0.0 1024114
06:00+17s31161100 0.0 1023414
09:00+21s595212 0.1 1022676
12:00+25ssw574125 0.0 10211467
15:00+25sw463823 0.0 10211701
18:00+22sw2459100 0.0 102098
21:00+18s2779100 0.3 1020148
15 may, sat
sat1500:00+16ssw24875 0.3 101969
03:00+15s239166 0.9 101961
06:00+18ssw248056 0.1 1019208
09:00+23ssw355547 0.1 1018754
12:00+25sw584792 0.0 10181264
15:00+25sw484590 0.0 10171284
18:00+24sw385534 0.0 1016288
21:00+18s31274100 0.0 1016241
16 may, sun
sun1600:00+16ssw3117378 0.0 1016238
03:00+14s277567 0.0 1016131
06:00+18s396294 0.0 1016263
09:00+23ssw5104269 0.0 1015642
12:00+27ssw7133410 0.0 10142215
15:00+28sw6143969 0.0 10133051
18:00+23sw51251100 0.0 1012736
21:00+18sw4147781 0.9 1012467